"Period start","avg(HW err(1)/warn(2) (#))","avg(Visibility (m))","avg(Weather code (#))","avg(Precip intensity (mm/h))","min(HW err(1)/warn(2) (#))","max(HW err(1)/warn(2) (#))","std(HW err(1)/warn(2) (#))","med(HW err(1)/warn(2) (#))","min(Visibility (m))","max(Visibility (m))","std(Visibility (m))","med(Visibility (m))","min(Weather code (#))","max(Weather code (#))","std(Weather code (#))","med(Weather code (#))","min(Precip intensity (mm/h))","max(Precip intensity (mm/h))","std(Precip intensity (mm/h))","med(Precip intensity (mm/h))"
2013-09-11 00:00:00,2,48507,0,0.00,2,2,0,2,41814,50000,3004,50000,0,0,0,0,0.00,0.00,0.00,0.00
2013-09-11 00:10:00,2,46356,0,0.00,2,2,0,2,39211,50000,3067,47106,0,0,0,0,0.00,0.00,0.00,0.00
2013-09-11 00:20:00,2,45541,0,0.00,2,2,0,2,33094,50000,6052,47961,0,0,0,0,0.00,0.00,0.00,0.00
2013-09-11 00:30:00,2,42827,0,0.00,2,2,0,2,33065,50000,5124,43086,0,0,0,0,0.00,0.00,0.00,0.00
2013-09-11 00:40:00,2,49355,0,0.00,2,2,0,2,45404,50000,1378,50000,0,0,0,0,0.00,0.00,0.00,0.00
2013-09-11 00:50:00,2,46863,0,0.00,2,2,0,2,41942,50000,3301,47783,0,0,0,0,0.00,0.00,0.00,0.00
2013-09-11 01:00:00,2,45848,0,0.00,2,2,0,2,34432,50000,5659,50000,0,0,0,0,0.00,0.00,0.00,0.00
2013-09-11 01:10:00,2,46374,0,0.00,2,2,0,2,38891,50000,4155,47977,0,0,0,0,0.00,0.00,0.00,0.00
2013-09-11 01:20:00,2,48699,0,0.00,2,2,0,2,43524,50000,2208,50000,0,0,0,0,0.00,0.00,0.00,0.00
2013-09-11 01:30:00,2,49881,0,0.00,2,2,0,2,49370,50000,237,50000,0,0,0,0,0.00,0.00,0.00,0.00
2013-09-11 01:40:00,2,44910,0,0.00,2,2,0,2,39198,50000,4511,45412,0,0,0,0,0.00,0.00,0.00,0.00
2013-09-11 01:50:00,2,48628,0,0.00,2,2,0,2,43465,50000,2222,50000,0,0,0,0,0.00,0.00,0.00,0.00
2013-09-11 02:00:00,2,41541,0,0.00,2,2,0,2,35640,49316,3961,41115,0,0,0,0,0.00,0.00,0.00,0.00
2013-09-11 02:10:00,2,47850,0,0.00,2,2,0,2,41580,50000,2866,50000,0,0,0,0,0.00,0.00,0.00,0.00
2013-09-11 02:20:00,2,49964,0,0.00,2,2,0,2,49638,50000,109,50000,0,0,0,0,0.00,0.00,0.00,0.00
2013-09-11 02:30:00,2,49069,0,0.00,2,2,0,2,45886,50000,1452,50000,0,0,0,0,0.00,0.00,0.00,0.00
2013-09-11 02:40:00,2,47088,0,0.00,2,2,0,2,38712,50000,3658,49053,0,0,0,0,0.00,0.00,0.00,0.00
2013-09-11 02:50:00,2,48709,0,0.00,2,2,0,2,41362,50000,2761,50000,0,0,0,0,0.00,0.00,0.00,0.00
2013-09-11 03:00:00,2,44885,0,0.00,2,2,0,2,41145,50000,2829,43864,0,0,0,0,0.00,0.00,0.00,0.00
2013-09-11 03:10:00,2,49703,0,0.00,2,2,0,2,47029,50000,891,50000,0,0,0,0,0.00,0.00,0.00,0.00
2013-09-11 03:20:00,1,49322,0,0.00,0,2,1,2,44752,50000,1575,50000,0,0,0,0,0.00,0.00,0.00,0.00
2013-09-11 03:30:00,0,45052,0,0.00,0,0,0,0,34398,50000,5550,48286,0,0,0,0,0.00,0.00,0.00,0.00
2013-09-11 03:40:00,0,46789,0,0.00,0,0,0,0,36823,50000,5011,50000,0,0,0,0,0.00,0.00,0.00,0.00
2013-09-11 03:50:00,2,48146,0,0.00,2,2,0,2,40906,50000,2809,49414,0,0,0,0,0.00,0.00,0.00,0.00
2013-09-11 04:00:00,2,48329,0,0.00,2,2,0,2,45063,50000,1988,49450,0,0,0,0,0.00,0.00,0.00,0.00
2013-09-11 04:10:00,2,49594,0,0.00,2,2,0,2,46934,50000,912,50000,0,0,0,0,0.00,0.00,0.00,0.00
2013-09-11 04:20:00,2,48740,0,0.00,2,2,0,2,45772,50000,1602,49684,0,0,0,0,0.00,0.00,0.00,0.00
2013-09-11 04:30:00,2,47353,0,0.00,2,2,0,2,37071,50000,4209,50000,0,0,0,0,0.00,0.00,0.00,0.00
2013-09-11 04:40:00,2,45142,0,0.00,2,2,0,2,41382,50000,2808,44310,0,0,0,0,0.00,0.00,0.00,0.00
2013-09-11 04:50:00,2,45533,0,0.00,2,2,0,2,41393,50000,3219,44332,0,0,0,0,0.00,0.00,0.00,0.00
2013-09-11 05:00:00,2,48550,0,0.00,2,2,0,2,40427,50000,3079,50000,0,0,0,0,0.00,0.00,0.00,0.00
2013-09-11 05:10:00,2,44871,0,0.00,2,2,0,2,33462,50000,5771,47120,0,0,0,0,0.00,0.00,0.00,0.00
2013-09-11 05:20:00,2,43619,0,0.00,2,2,0,2,33128,47764,3850,44881,0,0,0,0,0.00,0.00,0.00,0.00
2013-09-11 05:30:00,2,44996,0,0.00,2,2,0,2,35253,50000,5324,47135,0,0,0,0,0.00,0.00,0.00,0.00
2013-09-11 05:40:00,2,44484,0,0.00,2,2,0,2,32882,50000,5720,46293,0,0,0,0,0.00,0.00,0.00,0.00
2013-09-11 05:50:00,2,47537,0,0.00,2,2,0,2,40389,50000,3490,50000,0,0,0,0,0.00,0.00,0.00,0.00
2013-09-11 06:00:00,2,46456,0,0.00,2,2,0,2,37545,50000,3850,47194,0,0,0,0,0.00,0.00,0.00,0.00
2013-09-11 06:10:00,2,47583,0,0.00,2,2,0,2,40255,50000,2910,48801,0,0,0,0,0.00,0.00,0.00,0.00
2013-09-11 06:20:00,2,48082,0,0.00,2,2,0,2,44003,50000,2161,49214,0,0,0,0,0.00,0.00,0.00,0.00
2013-09-11 06:30:00,2,47536,0,0.00,2,2,0,2,35557,50000,4356,49651,0,0,0,0,0.00,0.00,0.00,0.00
2013-09-11 06:40:00,2,48728,0,0.00,2,2,0,2,41572,50000,2707,50000,0,0,0,0,0.00,0.00,0.00,0.00
2013-09-11 06:50:00,2,48663,0,0.00,2,2,0,2,44428,50000,2100,50000,0,0,0,0,0.00,0.00,0.00,0.00
2013-09-11 07:00:00,2,50000,0,0.00,2,2,0,2,50000,50000,0,50000,0,0,0,0,0.00,0.00,0.00,0.00
2013-09-11 07:10:00,2,48861,0,0.00,2,2,0,2,44567,50000,1708,50000,0,0,0,0,0.00,0.00,0.00,0.00
2013-09-11 07:20:00,2,47935,0,0.00,2,2,0,2,39679,50000,3055,49212,0,0,0,0,0.00,0.00,0.00,0.00
2013-09-11 07:30:00,2,49973,0,0.00,2,2,0,2,49732,50000,80,50000,0,0,0,0,0.00,0.00,0.00,0.00
2013-09-11 07:40:00,2,49264,0,0.00,2,2,0,2,46261,50000,1147,50000,0,0,0,0,0.00,0.00,0.00,0.00
2013-09-11 07:50:00,2,49563,0,0.00,2,2,0,2,45632,50000,1310,50000,0,0,0,0,0.00,0.00,0.00,0.00
2013-09-11 08:00:00,2,49441,0,0.00,2,2,0,2,47347,50000,930,50000,0,0,0,0,0.00,0.00,0.00,0.00
2013-09-11 08:10:00,2,47871,0,0.00,2,2,0,2,38771,50000,3420,50000,0,0,0,0,0.00,0.00,0.00,0.00
2013-09-11 08:20:00,2,49937,0,0.00,2,2,0,2,49675,50000,125,50000,0,0,0,0,0.00,0.00,0.00,0.00
2013-09-11 08:30:00,2,49937,0,0.00,2,2,0,2,49369,50000,189,50000,0,0,0,0,0.00,0.00,0.00,0.00
2013-09-11 08:40:00,2,49613,0,0.00,2,2,0,2,46719,50000,981,50000,0,0,0,0,0.00,0.00,0.00,0.00
2013-09-11 08:50:00,2,49362,0,0.00,2,2,0,2,43624,50000,1913,50000,0,0,0,0,0.00,0.00,0.00,0.00
2013-09-11 09:00:00,2,50000,0,0.00,2,2,0,2,50000,50000,0,50000,0,0,0,0,0.00,0.00,0.00,0.00
2013-09-11 09:10:00,2,49912,0,0.00,2,2,0,2,49119,50000,264,50000,0,0,0,0,0.00,0.00,0.00,0.00
2013-09-11 09:20:00,2,50000,0,0.00,2,2,0,2,50000,50000,0,50000,0,0,0,0,0.00,0.00,0.00,0.00
2013-09-11 09:30:00,2,50000,0,0.00,2,2,0,2,50000,50000,0,50000,0,0,0,0,0.00,0.00,0.00,0.00
2013-09-11 09:40:00,2,50000,0,0.00,2,2,0,2,50000,50000,0,50000,0,0,0,0,0.00,0.00,0.00,0.00
2013-09-11 09:50:00,2,50000,0,0.00,2,2,0,2,50000,50000,0,50000,0,0,0,0,0.00,0.00,0.00,0.00
2013-09-11 10:00:00,2,50000,0,0.00,2,2,0,2,50000,50000,0,50000,0,0,0,0,0.00,0.00,0.00,0.00
2013-09-11 10:10:00,2,50000,0,0.00,2,2,0,2,50000,50000,0,50000,0,0,0,0,0.00,0.00,0.00,0.00
2013-09-11 10:20:00,2,50000,0,0.00,2,2,0,2,50000,50000,0,50000,0,0,0,0,0.00,0.00,0.00,0.00
2013-09-11 10:30:00,2,50000,0,0.00,2,2,0,2,50000,50000,0,50000,0,0,0,0,0.00,0.00,0.00,0.00
2013-09-11 10:40:00,2,50000,0,0.00,2,2,0,2,50000,50000,0,50000,0,0,0,0,0.00,0.00,0.00,0.00
2013-09-11 10:50:00,2,50000,0,0.00,2,2,0,2,50000,50000,0,50000,0,0,0,0,0.00,0.00,0.00,0.00
2013-09-11 11:00:00,2,50000,0,0.00,2,2,0,2,50000,50000,0,50000,0,0,0,0,0.00,0.00,0.00,0.00
2013-09-11 11:10:00,2,50000,0,0.00,2,2,0,2,50000,50000,0,50000,0,0,0,0,0.00,0.00,0.00,0.00
2013-09-11 11:20:00,2,50000,0,0.00,2,2,0,2,50000,50000,0,50000,0,0,0,0,0.00,0.00,0.00,0.00
2013-09-11 11:30:00,2,50000,0,0.00,2,2,0,2,50000,50000,0,50000,0,0,0,0,0.00,0.00,0.00,0.00
2013-09-11 11:40:00,2,50000,0,0.00,2,2,0,2,50000,50000,0,50000,0,0,0,0,0.00,0.00,0.00,0.00
2013-09-11 11:50:00,2,50000,0,0.00,2,2,0,2,50000,50000,0,50000,0,0,0,0,0.00,0.00,0.00,0.00
2013-09-11 12:00:00,2,50000,0,0.00,2,2,0,2,50000,50000,0,50000,0,0,0,0,0.00,0.00,0.00,0.00
2013-09-11 12:10:00,2,50000,0,0.00,2,2,0,2,50000,50000,0,50000,0,0,0,0,0.00,0.00,0.00,0.00
2013-09-11 12:20:00,2,50000,0,0.00,2,2,0,2,50000,50000,0,50000,0,0,0,0,0.00,0.00,0.00,0.00
2013-09-11 12:30:00,2,50000,0,0.00,2,2,0,2,50000,50000,0,50000,0,0,0,0,0.00,0.00,0.00,0.00
2013-09-11 12:40:00,2,50000,0,0.00,2,2,0,2,50000,50000,0,50000,0,0,0,0,0.00,0.00,0.00,0.00
2013-09-11 12:50:00,2,50000,0,0.00,2,2,0,2,50000,50000,0,50000,0,0,0,0,0.00,0.00,0.00,0.00
2013-09-11 13:00:00,2,50000,0,0.00,2,2,0,2,50000,50000,0,50000,0,0,0,0,0.00,0.00,0.00,0.00
2013-09-11 13:10:00,2,50000,0,0.00,2,2,0,2,50000,50000,0,50000,0,0,0,0,0.00,0.00,0.00,0.00
2013-09-11 13:20:00,2,50000,0,0.00,2,2,0,2,50000,50000,0,50000,0,0,0,0,0.00,0.00,0.00,0.00
2013-09-11 13:30:00,2,50000,0,0.00,2,2,0,2,50000,50000,0,50000,0,0,0,0,0.00,0.00,0.00,0.00
2013-09-11 13:40:00,2,50000,0,0.00,2,2,0,2,50000,50000,0,50000,0,0,0,0,0.00,0.00,0.00,0.00
2013-09-11 13:50:00,2,50000,0,0.00,2,2,0,2,50000,50000,0,50000,0,0,0,0,0.00,0.00,0.00,0.00
2013-09-11 14:00:00,2,50000,0,0.00,2,2,0,2,50000,50000,0,50000,0,0,0,0,0.00,0.00,0.00,0.00
2013-09-11 14:10:00,2,50000,0,0.00,2,2,0,2,50000,50000,0,50000,0,0,0,0,0.00,0.00,0.00,0.00
2013-09-11 14:20:00,2,50000,0,0.00,2,2,0,2,50000,50000,0,50000,0,0,0,0,0.00,0.00,0.00,0.00
2013-09-11 14:30:00,2,50000,0,0.00,2,2,0,2,50000,50000,0,50000,0,0,0,0,0.00,0.00,0.00,0.00
2013-09-11 14:40:00,2,50000,0,0.00,2,2,0,2,50000,50000,0,50000,0,0,0,0,0.00,0.00,0.00,0.00
2013-09-11 14:50:00,2,50000,0,0.00,2,2,0,2,50000,50000,0,50000,0,0,0,0,0.00,0.00,0.00,0.00
2013-09-11 15:00:00,2,50000,0,0.00,2,2,0,2,50000,50000,0,50000,0,0,0,0,0.00,0.00,0.00,0.00
2013-09-11 15:10:00,2,50000,0,0.00,2,2,0,2,50000,50000,0,50000,0,0,0,0,0.00,0.00,0.00,0.00
2013-09-11 15:20:00,2,50000,0,0.00,2,2,0,2,50000,50000,0,50000,0,0,0,0,0.00,0.00,0.00,0.00
2013-09-11 15:30:00,0,50000,0,0.00,0,2,1,0,50000,50000,0,50000,0,0,0,0,0.00,0.00,0.00,0.00
2013-09-11 15:40:00,0,50000,0,0.00,0,2,1,0,50000,50000,0,50000,0,0,0,0,0.00,0.00,0.00,0.00
2013-09-11 15:50:00,2,50000,0,0.00,2,2,0,2,50000,50000,0,50000,0,0,0,0,0.00,0.00,0.00,0.00
2013-09-11 16:00:00,2,50000,0,0.00,2,2,0,2,50000,50000,0,50000,0,0,0,0,0.00,0.00,0.00,0.00
2013-09-11 16:10:00,2,50000,0,0.00,2,2,0,2,50000,50000,0,50000,0,0,0,0,0.00,0.00,0.00,0.00
2013-09-11 16:20:00,2,50000,0,0.00,2,2,0,2,50000,50000,0,50000,0,0,0,0,0.00,0.00,0.00,0.00
2013-09-11 16:30:00,2,50000,0,0.00,2,2,0,2,50000,50000,0,50000,0,0,0,0,0.00,0.00,0.00,0.00
2013-09-11 16:40:00,2,50000,0,0.00,2,2,0,2,50000,50000,0,50000,0,0,0,0,0.00,0.00,0.00,0.00
2013-09-11 16:50:00,2,50000,0,0.00,2,2,0,2,50000,50000,0,50000,0,0,0,0,0.00,0.00,0.00,0.00
2013-09-11 17:00:00,2,50000,0,0.00,2,2,0,2,50000,50000,0,50000,0,0,0,0,0.00,0.00,0.00,0.00
2013-09-11 17:10:00,2,50000,0,0.00,2,2,0,2,50000,50000,0,50000,0,0,0,0,0.00,0.00,0.00,0.00
2013-09-11 17:20:00,2,50000,0,0.00,2,2,0,2,50000,50000,0,50000,0,0,0,0,0.00,0.00,0.00,0.00
2013-09-11 17:30:00,2,50000,0,0.00,2,2,0,2,50000,50000,0,50000,0,0,0,0,0.00,0.00,0.00,0.00
2013-09-11 17:40:00,2,50000,0,0.00,2,2,0,2,50000,50000,0,50000,0,0,0,0,0.00,0.00,0.00,0.00
2013-09-11 17:50:00,2,50000,0,0.00,2,2,0,2,50000,50000,0,50000,0,0,0,0,0.00,0.00,0.00,0.00
2013-09-11 18:00:00,2,50000,0,0.00,2,2,0,2,50000,50000,0,50000,0,0,0,0,0.00,0.00,0.00,0.00
2013-09-11 18:10:00,2,50000,0,0.00,2,2,0,2,50000,50000,0,50000,0,0,0,0,0.00,0.00,0.00,0.00
2013-09-11 18:20:00,2,50000,0,0.00,2,2,0,2,50000,50000,0,50000,0,0,0,0,0.00,0.00,0.00,0.00
2013-09-11 18:30:00,2,49799,0,0.00,2,2,0,2,48495,50000,460,50000,0,0,0,0,0.00,0.00,0.00,0.00
2013-09-11 18:40:00,2,50000,0,0.00,2,2,0,2,50000,50000,0,50000,0,0,0,0,0.00,0.00,0.00,0.00
2013-09-11 18:50:00,2,50000,0,0.00,2,2,0,2,50000,50000,0,50000,0,0,0,0,0.00,0.00,0.00,0.00
2013-09-11 19:00:00,2,50000,0,0.00,2,2,0,2,50000,50000,0,50000,0,0,0,0,0.00,0.00,0.00,0.00
2013-09-11 19:10:00,2,50000,0,0.00,2,2,0,2,50000,50000,0,50000,0,0,0,0,0.00,0.00,0.00,0.00
2013-09-11 19:20:00,2,50000,0,0.00,2,2,0,2,50000,50000,0,50000,0,0,0,0,0.00,0.00,0.00,0.00
2013-09-11 19:30:00,2,50000,0,0.00,2,2,0,2,50000,50000,0,50000,0,0,0,0,0.00,0.00,0.00,0.00
2013-09-11 19:40:00,2,50000,0,0.00,2,2,0,2,50000,50000,0,50000,0,0,0,0,0.00,0.00,0.00,0.00
2013-09-11 19:50:00,2,50000,0,0.00,2,2,0,2,50000,50000,0,50000,0,0,0,0,0.00,0.00,0.00,0.00
2013-09-11 20:00:00,2,49949,0,0.00,2,2,0,2,49491,50000,153,50000,0,0,0,0,0.00,0.00,0.00,0.00
2013-09-11 20:10:00,2,49340,0,0.00,2,2,0,2,44895,50000,1547,50000,0,0,0,0,0.00,0.00,0.00,0.00
2013-09-11 20:20:00,2,48890,0,0.00,2,2,0,2,45094,50000,1613,50000,0,0,0,0,0.00,0.00,0.00,0.00
2013-09-11 20:30:00,2,49254,0,0.00,2,2,0,2,43821,50000,1851,50000,0,0,0,0,0.00,0.00,0.00,0.00
2013-09-11 20:40:00,2,49787,0,0.00,2,2,0,2,48005,50000,595,50000,0,0,0,0,0.00,0.00,0.00,0.00
2013-09-11 20:50:00,2,41669,0,0.00,2,2,0,2,35177,49866,4666,41350,0,0,0,0,0.00,0.00,0.00,0.00
2013-09-11 21:00:00,2,38071,0,0.00,2,2,0,2,28298,42959,4698,40176,0,0,0,0,0.00,0.00,0.00,0.00
2013-09-11 21:10:00,2,25234,0,0.00,2,2,0,2,16038,32720,6021,24968,0,0,0,0,0.00,0.00,0.00,0.00
2013-09-11 21:20:00,2,24375,0,0.00,2,2,0,2,17046,31936,4146,24316,0,0,0,0,0.00,0.00,0.00,0.00
2013-09-11 21:30:00,2,29215,0,0.00,2,2,0,2,21028,40695,6366,27328,0,0,0,0,0.00,0.00,0.00,0.00
2013-09-11 21:40:00,2,32036,0,0.00,2,2,0,2,28408,36325,2646,32136,0,0,0,0,0.00,0.00,0.00,0.00
2013-09-11 21:50:00,2,25065,0,0.00,2,2,0,2,13498,32329,5566,27210,0,0,0,0,0.00,0.00,0.00,0.00
2013-09-11 22:00:00,2,20790,0,0.00,2,2,0,2,13098,34681,7488,17522,0,0,0,0,0.00,0.00,0.00,0.00
2013-09-11 22:10:00,2,14764,0,0.00,2,2,0,2,10734,17805,2541,15594,0,0,0,0,0.00,0.00,0.00,0.00
2013-09-11 22:20:00,2,14697,0,0.00,2,2,0,2,12064,17291,1617,14950,0,0,0,0,0.00,0.00,0.00,0.00
2013-09-11 22:30:00,2,14350,0,0.00,2,2,0,2,10789,20875,3302,13636,0,0,0,0,0.00,0.00,0.00,0.00
2013-09-11 22:40:00,2,14754,0,0.00,2,2,0,2,10738,16839,1890,15156,0,0,0,0,0.00,0.00,0.00,0.00
2013-09-11 22:50:00,2,12786,0,0.00,2,2,0,2,10187,14336,1255,13024,0,0,0,0,0.00,0.00,0.00,0.00
2013-09-11 23:00:00,2,22467,0,0.00,2,2,0,2,14165,31781,5249,22336,0,0,0,0,0.00,0.00,0.00,0.00
2013-09-11 23:10:00,2,31813,0,0.00,2,2,0,2,24990,35505,3557,33148,0,0,0,0,0.00,0.00,0.00,0.00
2013-09-11 23:20:00,2,33791,0,0.00,2,2,0,2,19758,50000,11979,32958,0,0,0,0,0.00,0.00,0.00,0.00
2013-09-11 23:30:00,2,45836,0,0.00,2,2,0,2,39777,50000,3646,47261,0,0,0,0,0.00,0.00,0.00,0.00
2013-09-11 23:40:00,2,49356,0,0.00,2,2,0,2,47761,50000,985,50000,0,0,0,0,0.00,0.00,0.00,0.00
2013-09-11 23:50:00,2,49645,0,0.00,2,2,0,2,47968,50000,676,50000,0,0,0,0,0.00,0.00,0.00,0.00
